,,,PA_Meas_PMT16A,,PR_Meas_QMR101_102,,RH_Meas_QMH101,,SR_Meas_QMS101,,TA_Meas_QMH101,,GenWind,,GenWind,
date,time,status,PA,status,PR,status,RH,status,SR,status,TA,status,DirAvg,status,SpdAvg,
2010-12-30, 00:00:04,VALID,1002.22,VALID,0,INVALID,163.662,VALID,0,VALID,24.8697,VALID,119,VALID,0.789453,
2010-12-30, 00:01:04,VALID,1002.21,VALID,0,INVALID,163.655,VALID,0,VALID,24.8911,VALID,120,VALID,0.907812,
2010-12-30, 00:02:04,VALID,1002.18,VALID,0,INVALID,163.632,VALID,0,VALID,24.8697,VALID,125,VALID,0.917188,
2010-12-30, 00:03:04,VALID,1002.1,VALID,0,INVALID,163.632,VALID,0,VALID,24.93,VALID,145,VALID,0.841016,
2010-12-30, 00:04:04,VALID,1002.09,VALID,0,INVALID,163.617,VALID,0,VALID,24.93,VALID,121,VALID,0.542969,
2010-12-30, 00:05:04,VALID,1002.04,VALID,0,INVALID,163.639,VALID,0,VALID,24.8892,VALID,106,VALID,0.441016,
2010-12-30, 00:06:04,VALID,1002.03,VALID,0,INVALID,163.632,VALID,0,VALID,24.9106,VALID,53,VALID,0.683984,
2010-12-30, 00:07:04,VALID,1002.05,VALID,0,INVALID,163.647,VALID,0,VALID,24.8911,VALID,24,VALID,0.512109,
2010-12-30, 00:08:04,VALID,1002.09,VALID,0,INVALID,163.655,VALID,0,VALID,24.8503,VALID,24,VALID,0.460547,
2010-12-30, 00:09:04,VALID,1002.16,VALID,0,INVALID,163.647,VALID,0,VALID,24.8697,VALID,24,VALID,0.379297,
2010-12-30, 00:10:04,VALID,1002.21,VALID,0,INVALID,163.647,VALID,0,VALID,24.8716,VALID,118,VALID,1.11289,
2010-12-30, 00:11:04,VALID,1002.29,VALID,0,INVALID,163.685,VALID,0,VALID,24.8095,VALID,77,VALID,0.680469,
2010-12-30, 00:12:04,VALID,1002.31,VALID,0,INVALID,163.639,VALID,0,VALID,24.8308,VALID,79,VALID,0.265234,
2010-12-30, 00:13:04,VALID,1002.32,VALID,0,INVALID,163.678,VALID,0,VALID,24.8308,VALID,79,VALID,0.308594,
2010-12-30, 00:14:04,VALID,1002.3,VALID,0,INVALID,163.639,VALID,0,VALID,24.8697,VALID,76,VALID,0.459375,
2010-12-30, 00:15:04,VALID,1002.31,VALID,0,INVALID,163.639,VALID,0,VALID,24.9087,VALID,74,VALID,0.473828,
2010-12-30, 00:16:04,VALID,1002.32,VALID,0,INVALID,163.662,VALID,0,VALID,24.9495,VALID,77,VALID,0.471094,
2010-12-30, 00:17:04,VALID,1002.32,VALID,0,INVALID,163.639,VALID,0,VALID,24.9476,VALID,100,VALID,1.06641,
2010-12-30, 00:18:04,VALID,1002.34,VALID,0,INVALID,163.647,VALID,0,VALID,25.0274,VALID,93,VALID,0.662891,
2010-12-30, 00:19:04,VALID,1002.37,VALID,0,INVALID,163.639,VALID,0,VALID,25.0663,VALID,114,VALID,0.731641,
2010-12-30, 00:20:04,VALID,1002.38,VALID,0,INVALID,163.639,VALID,0,VALID,25.045,VALID,31,VALID,1.51563,
2010-12-30, 00:21:04,VALID,1002.32,VALID,0,INVALID,163.639,VALID,0,VALID,25.0255,VALID,106,VALID,0.786719,
2010-12-30, 00:22:04,VALID,1002.29,VALID,0,INVALID,163.632,VALID,0,VALID,24.9885,VALID,72,VALID,1.2582,
2010-12-30, 00:23:04,VALID,1002.34,VALID,0,INVALID,163.632,VALID,0,VALID,24.9671,VALID,359,VALID,1.42344,
2010-12-30, 00:24:04,VALID,1002.33,VALID,0,INVALID,163.655,VALID,0,VALID,24.9282,VALID,73,VALID,1.81992,
2010-12-30, 00:25:04,VALID,1002.27,VALID,0.5,INVALID,163.647,VALID,0,VALID,24.7353,VALID,47,VALID,1.59648,
2010-12-30, 00:26:04,VALID,1002.26,VALID,0.5,INVALID,163.701,VALID,0,VALID,24.4609,VALID,28,VALID,2.41484,
2010-12-30, 00:27:04,VALID,1002.21,VALID,0.5,INVALID,163.662,VALID,0,VALID,24.2681,VALID,69,VALID,1.61211,
2010-12-30, 00:28:04,VALID,1002.2,VALID,0.5,INVALID,163.716,VALID,0,VALID,24.091,VALID,31,VALID,2.39414,
2010-12-30, 00:29:04,VALID,1002.17,VALID,0,INVALID,163.716,VALID,0,VALID,23.9955,VALID,28,VALID,1.10117,
2010-12-30, 00:30:04,VALID,1002.22,VALID,0.5,INVALID,163.739,VALID,0,VALID,23.9177,VALID,112,VALID,1.43008,
2010-12-30, 00:31:04,VALID,1002.27,VALID,0,INVALID,163.716,VALID,0,VALID,23.8787,VALID,128,VALID,2.31758,
2010-12-30, 00:32:04,VALID,1002.32,VALID,0.5,INVALID,163.739,VALID,0,VALID,23.838,VALID,132,VALID,2.03945,
2010-12-30, 00:33:04,VALID,1002.33,VALID,0.5,INVALID,163.754,VALID,0,VALID,23.7212,VALID,129,VALID,2.7707,
2010-12-30, 00:34:04,VALID,1002.39,VALID,1,INVALID,163.754,VALID,0,VALID,23.6434,VALID,128,VALID,2.77344,
2010-12-30, 00:35:04,VALID,1002.41,VALID,1,INVALID,163.731,VALID,0,VALID,23.5673,VALID,111,VALID,1.73672,
2010-12-30, 00:36:04,VALID,1002.44,VALID,1,INVALID,163.754,VALID,0,VALID,23.4682,VALID,122,VALID,2.32344,
2010-12-30, 00:37:04,VALID,1002.42,VALID,0.5,INVALID,163.746,VALID,0,VALID,23.4505,VALID,102,VALID,1.32109,
2010-12-30, 00:38:04,VALID,1002.41,VALID,1.5,INVALID,163.762,VALID,0,VALID,23.3904,VALID,128,VALID,2.38672,
2010-12-30, 00:39:04,VALID,1002.39,VALID,1,INVALID,163.754,VALID,0,VALID,23.3709,VALID,97,VALID,1.48125,
2010-12-30, 00:40:04,VALID,1002.37,VALID,1,INVALID,163.777,VALID,0,VALID,23.2913,VALID,109,VALID,2.05273,
2010-12-30, 00:41:04,VALID,1002.34,VALID,1,INVALID,163.746,VALID,0,VALID,23.2736,VALID,93,VALID,0.841797,
2010-12-30, 00:42:04,VALID,1002.33,VALID,1,INVALID,163.777,VALID,0,VALID,23.2754,VALID,77,VALID,0.833203,
2010-12-30, 00:43:04,VALID,1002.33,VALID,0.5,INVALID,163.754,VALID,0,VALID,23.2559,VALID,93,VALID,1.12578,
2010-12-30, 00:44:04,VALID,1002.38,VALID,0.5,INVALID,163.784,VALID,0,VALID,23.2152,VALID,109,VALID,1.66836,
2010-12-30, 00:45:04,VALID,1002.39,VALID,0,INVALID,163.8,VALID,0,VALID,23.1957,VALID,99,VALID,1.34297,
2010-12-30, 00:46:04,VALID,1002.47,VALID,0.5,INVALID,163.777,VALID,0,VALID,23.1957,VALID,102,VALID,1.64219,
2010-12-30, 00:47:04,VALID,1002.48,VALID,0,INVALID,163.807,VALID,0,VALID,23.1957,VALID,90,VALID,1.74023,
2010-12-30, 00:48:04,VALID,1002.55,VALID,1,INVALID,163.769,VALID,0,VALID,23.2152,VALID,99,VALID,2.4543,
2010-12-30, 00:49:04,VALID,1002.58,VALID,1.5,INVALID,163.769,VALID,0,VALID,23.1763,VALID,92,VALID,1.88047,
2010-12-30, 00:50:04,VALID,1002.61,VALID,1,INVALID,163.746,VALID,0,VALID,23.1374,VALID,107,VALID,2.16367,
2010-12-30, 00:51:04,VALID,1002.6,VALID,1,INVALID,163.784,VALID,0,VALID,23.0984,VALID,104,VALID,2.92852,
2010-12-30, 00:52:04,VALID,1002.6,VALID,1,INVALID,163.777,VALID,0,VALID,23.079,VALID,105,VALID,1.74609,
2010-12-30, 00:53:04,VALID,1002.59,VALID,1,INVALID,163.8,VALID,0,VALID,23.079,VALID,116,VALID,1.20273,
2010-12-30, 00:54:04,VALID,1002.55,VALID,0.5,INVALID,163.823,VALID,0,VALID,23.079,VALID,110,VALID,1.54336,
2010-12-30, 00:55:04,VALID,1002.57,VALID,0.5,INVALID,163.777,VALID,0,VALID,23.0595,VALID,111,VALID,1.61523,
2010-12-30, 00:56:04,VALID,1002.51,VALID,0.5,INVALID,163.769,VALID,0.100563,VALID,23.0595,VALID,104,VALID,1.3582,
2010-12-30, 00:57:04,VALID,1002.49,VALID,0,INVALID,163.8,VALID,0,VALID,23.0383,VALID,94,VALID,1.59883,
2010-12-30, 00:58:04,VALID,1002.42,VALID,0.5,INVALID,163.777,VALID,0,VALID,23.0383,VALID,101,VALID,1.90625,
2010-12-30, 00:59:04,VALID,1002.39,VALID,0,INVALID,163.769,VALID,0,VALID,23.0984,VALID,106,VALID,1.33438,
2010-12-30, 01:00:04,VALID,1002.36,VALID,0.5,INVALID,163.777,VALID,0,VALID,23.0984,VALID,110,VALID,1.56094,
2010-12-30, 01:01:04,VALID,1002.32,VALID,0,INVALID,163.769,VALID,0,VALID,23.1568,VALID,133,VALID,1.39883,
2010-12-30, 01:02:04,VALID,1002.3,VALID,0,INVALID,163.784,VALID,0,VALID,23.1374,VALID,126,VALID,1.58203,
2010-12-30, 01:03:04,VALID,1002.25,VALID,0,INVALID,163.784,VALID,0,VALID,23.1374,VALID,121,VALID,1.58203,
2010-12-30, 01:04:04,VALID,1002.26,VALID,0,INVALID,163.784,VALID,0,VALID,23.1374,VALID,144,VALID,1.08633,
2010-12-30, 01:05:04,VALID,1002.22,VALID,0,INVALID,163.762,VALID,0,VALID,23.1568,VALID,142,VALID,1.3625,
2010-12-30, 01:06:04,VALID,1002.22,VALID,0,INVALID,163.784,VALID,0,VALID,23.1374,VALID,156,VALID,1.96914,
2010-12-30, 01:07:04,VALID,1002.21,VALID,0,INVALID,163.769,VALID,0,VALID,23.0984,VALID,145,VALID,1.6918,
2010-12-30, 01:08:04,VALID,1002.2,VALID,0.5,INVALID,163.807,VALID,0,VALID,23.1002,VALID,154,VALID,1.31211,
2010-12-30, 01:09:04,VALID,1002.22,VALID,0,INVALID,163.792,VALID,0,VALID,23.0595,VALID,146,VALID,1.44453,
2010-12-30, 01:10:04,VALID,1002.19,VALID,0,INVALID,163.815,VALID,0,VALID,23.0595,VALID,165,VALID,1.72812,
2010-12-30, 01:11:04,VALID,1002.15,VALID,0.5,INVALID,163.777,VALID,0,VALID,23.0189,VALID,152,VALID,0.878516,
2010-12-30, 01:12:04,VALID,1002.14,VALID,0,INVALID,163.792,VALID,0,VALID,23.0401,VALID,149,VALID,1.06445,
2010-12-30, 01:13:04,VALID,1002.1,VALID,0,INVALID,163.784,VALID,0,VALID,23.0401,VALID,142,VALID,2.17227,
2010-12-30, 01:14:04,VALID,1002.06,VALID,0,INVALID,163.777,VALID,0.100563,VALID,23.0578,VALID,129,VALID,1.81523,
2010-12-30, 01:15:04,VALID,1002.01,VALID,0.5,INVALID,163.792,VALID,0.100563,VALID,23.0595,VALID,144,VALID,1.30313,
2010-12-30, 01:16:04,VALID,1001.95,VALID,0,INVALID,163.769,VALID,0,VALID,23.0189,VALID,126,VALID,1.33203,
2010-12-30, 01:17:04,VALID,1001.95,VALID,0,INVALID,163.769,VALID,0,VALID,23.0595,VALID,157,VALID,1.03906,
2010-12-30, 01:18:04,VALID,1001.94,VALID,0,INVALID,163.8,VALID,0,VALID,23.0206,VALID,152,VALID,0.896875,
2010-12-30, 01:19:04,VALID,1001.94,VALID,0,INVALID,163.807,VALID,0.100563,VALID,23.0206,VALID,102,VALID,0.522266,
2010-12-30, 01:20:04,VALID,1001.96,VALID,0,INVALID,163.807,VALID,0,VALID,23.0029,VALID,98,VALID,0.792188,
2010-12-30, 01:21:04,VALID,1001.98,VALID,0.5,INVALID,163.784,VALID,0,VALID,22.9817,VALID,99,VALID,0.864062,
2010-12-30, 01:22:04,VALID,1001.98,VALID,0,INVALID,163.792,VALID,0,VALID,22.941,VALID,98,VALID,1.42578,
2010-12-30, 01:23:04,VALID,1001.99,VALID,0,INVALID,163.777,VALID,0.100563,VALID,22.9622,VALID,107,VALID,1.24961,
2010-12-30, 01:24:04,VALID,1002,VALID,0,INVALID,163.762,VALID,0,VALID,22.9622,VALID,108,VALID,0.682422,
2010-12-30, 01:25:04,VALID,1002.02,VALID,0,INVALID,163.807,VALID,0.100563,VALID,22.9605,VALID,131,VALID,1.35742,
2010-12-30, 01:26:04,VALID,1002.01,VALID,0,INVALID,163.784,VALID,0,VALID,22.9622,VALID,148,VALID,1.07969,
2010-12-30, 01:27:04,VALID,1002,VALID,0,INVALID,163.777,VALID,0,VALID,22.9622,VALID,146,VALID,0.824219,
2010-12-30, 01:28:04,VALID,1001.97,VALID,0,INVALID,163.777,VALID,0,VALID,22.941,VALID,141,VALID,0.308594,
2010-12-30, 01:29:04,VALID,1001.97,VALID,0,INVALID,163.792,VALID,0.100563,VALID,22.9605,VALID,141,VALID,0.0535156,
2010-12-30, 01:30:04,VALID,1001.95,VALID,0,INVALID,163.777,VALID,0.100563,VALID,22.9622,VALID,142,VALID,0.482812,
2010-12-30, 01:31:04,VALID,1001.91,VALID,0,INVALID,163.777,VALID,0,VALID,22.9817,VALID,158,VALID,0.4,
2010-12-30, 01:32:04,VALID,1001.9,VALID,0,INVALID,163.792,VALID,0.100563,VALID,22.9817,VALID,142,VALID,0.43125,
2010-12-30, 01:33:04,VALID,1001.92,VALID,0,INVALID,163.807,VALID,0,VALID,23.0012,VALID,96,VALID,1.08867,
2010-12-30, 01:34:04,VALID,1001.91,VALID,0,INVALID,163.807,VALID,0,VALID,22.9817,VALID,96,VALID,1.09648,
2010-12-30, 01:35:04,VALID,1001.9,VALID,0,INVALID,163.777,VALID,0,VALID,22.9834,VALID,119,VALID,0.76875,
2010-12-30, 01:36:04,VALID,1001.89,VALID,0,INVALID,163.769,VALID,0.100563,VALID,22.9622,VALID,101,VALID,0.930078,
2010-12-30, 01:37:04,VALID,1001.92,VALID,0,INVALID,163.792,VALID,0,VALID,22.9817,VALID,87,VALID,0.915625,
2010-12-30, 01:38:04,VALID,1001.92,VALID,0,INVALID,163.8,VALID,0,VALID,22.9622,VALID,86,VALID,0.655078,
2010-12-30, 01:39:04,VALID,1001.9,VALID,0,INVALID,163.769,VALID,0,VALID,22.9428,VALID,53,VALID,0.546484,
2010-12-30, 01:40:04,VALID,1001.88,VALID,0,INVALID,163.777,VALID,0,VALID,22.9428,VALID,49,VALID,0.315234,
2010-12-30, 01:41:04,VALID,1001.87,VALID,0,INVALID,163.792,VALID,0,VALID,22.9428,VALID,46,VALID,0.450391,
2010-12-30, 01:42:04,VALID,1001.83,VALID,0,INVALID,163.762,VALID,0.100563,VALID,22.9622,VALID,37,VALID,0.384766,
2010-12-30, 01:43:04,VALID,1001.79,VALID,0,INVALID,163.784,VALID,0,VALID,22.9817,VALID,8,VALID,0.990234,
2010-12-30, 01:44:04,VALID,1001.8,VALID,0,INVALID,163.792,VALID,0.100563,VALID,22.941,VALID,349,VALID,0.854688,
2010-12-30, 01:45:04,VALID,1001.76,VALID,0,INVALID,163.769,VALID,0,VALID,22.941,VALID,350,VALID,0.838672,
2010-12-30, 01:46:04,VALID,1001.77,VALID,0,INVALID,163.792,VALID,0,VALID,22.9622,VALID,353,VALID,0.648438,
2010-12-30, 01:47:04,VALID,1001.74,VALID,0,INVALID,163.777,VALID,0,VALID,22.9428,VALID,357,VALID,0.702344,
2010-12-30, 01:48:04,VALID,1001.75,VALID,0,INVALID,163.762,VALID,0,VALID,22.9622,VALID,347,VALID,0.461719,
2010-12-30, 01:49:04,VALID,1001.68,VALID,0,INVALID,163.792,VALID,0,VALID,22.9817,VALID,347,VALID,0.610547,
2010-12-30, 01:50:04,VALID,1001.69,VALID,0,INVALID,163.784,VALID,0,VALID,22.9622,VALID,347,VALID,0.644922,
2010-12-30, 01:51:04,VALID,1001.66,VALID,0,INVALID,163.784,VALID,0,VALID,22.941,VALID,347,VALID,0.447656,
2010-12-30, 01:52:04,VALID,1001.66,VALID,0,INVALID,163.784,VALID,0,VALID,22.9817,VALID,347,VALID,0.577344,
2010-12-30, 01:53:04,VALID,1001.64,VALID,0,INVALID,163.807,VALID,0,VALID,22.9817,VALID,356,VALID,0.609375,
2010-12-30, 01:54:04,VALID,1001.64,VALID,0,INVALID,163.784,VALID,0.100563,VALID,23.0029,VALID,17,VALID,0.350781,
2010-12-30, 01:55:04,VALID,1001.64,VALID,0,INVALID,163.792,VALID,0,VALID,23.0012,VALID,70,VALID,0.605859,
2010-12-30, 01:56:04,VALID,1001.65,VALID,0.5,INVALID,163.792,VALID,0,VALID,23.0206,VALID,108,VALID,0.785547,
2010-12-30, 01:57:04,VALID,1001.61,VALID,0,INVALID,163.792,VALID,0,VALID,22.9994,VALID,117,VALID,1.01367,
2010-12-30, 01:58:04,VALID,1001.61,VALID,0,INVALID,163.8,VALID,0,VALID,22.98,VALID,125,VALID,1.18867,
2010-12-30, 01:59:04,VALID,1001.56,VALID,0.5,INVALID,163.8,VALID,0.100563,VALID,23.0012,VALID,127,VALID,1.175,
2010-12-30, 02:00:04,VALID,1001.51,VALID,0,INVALID,163.777,VALID,0,VALID,22.9817,VALID,121,VALID,1.19023,
2010-12-30, 02:01:04,VALID,1001.45,VALID,0,INVALID,163.8,VALID,0,VALID,22.9817,VALID,111,VALID,1.16836,
2010-12-30, 02:02:04,VALID,1001.4,VALID,0.5,INVALID,163.746,VALID,0,VALID,22.9428,VALID,96,VALID,0.799219,
2010-12-30, 02:03:04,VALID,1001.31,VALID,0,INVALID,163.784,VALID,0,VALID,22.9622,VALID,96,VALID,0.380078,
2010-12-30, 02:04:04,VALID,1001.32,VALID,0,INVALID,163.784,VALID,0,VALID,22.9233,VALID,96,VALID,0.226563,
2010-12-30, 02:05:04,VALID,1001.28,VALID,0,INVALID,163.746,VALID,0,VALID,22.9428,VALID,96,VALID,0.246094,
2010-12-30, 02:06:04,VALID,1001.26,VALID,0,INVALID,163.807,VALID,0.100563,VALID,22.9622,VALID,96,VALID,0.283594,
2010-12-30, 02:07:04,VALID,1001.28,VALID,0,INVALID,163.784,VALID,0,VALID,22.9834,VALID,96,VALID,0.629687,
2010-12-30, 02:08:04,VALID,1001.36,VALID,0,INVALID,163.777,VALID,0,VALID,22.9834,VALID,96,VALID,1.03984,
2010-12-30, 02:09:04,VALID,1001.39,VALID,0.5,INVALID,163.8,VALID,0.100563,VALID,22.9622,VALID,98,VALID,1.13281,
2010-12-30, 02:10:04,VALID,1001.43,VALID,0,INVALID,163.769,VALID,0.100563,VALID,22.9622,VALID,90,VALID,0.91875,
2010-12-30, 02:11:04,VALID,1001.44,VALID,0,INVALID,163.807,VALID,0,VALID,22.9216,VALID,90,VALID,0.772266,
2010-12-30, 02:12:04,VALID,1001.43,VALID,0,INVALID,163.792,VALID,0,VALID,22.9445,VALID,107,VALID,1.25391,
2010-12-30, 02:13:04,VALID,1001.43,VALID,0,INVALID,163.784,VALID,0,VALID,22.8827,VALID,99,VALID,0.628125,
2010-12-30, 02:14:04,VALID,1001.37,VALID,0,INVALID,163.784,VALID,0.100563,VALID,22.9039,VALID,125,VALID,0.676953,
2010-12-30, 02:15:04,VALID,1001.33,VALID,0,INVALID,163.792,VALID,0.100563,VALID,22.9039,VALID,111,VALID,0.607031,
2010-12-30, 02:16:04,VALID,1001.3,VALID,0,INVALID,163.777,VALID,0,VALID,22.8827,VALID,110,VALID,0.588281,
2010-12-30, 02:17:04,VALID,1001.25,VALID,0,INVALID,163.792,VALID,0,VALID,22.9233,VALID,117,VALID,0.394141,
2010-12-30, 02:18:04,VALID,1001.24,VALID,0,INVALID,163.777,VALID,0.100563,VALID,22.9039,VALID,124,VALID,0.566406,
2010-12-30, 02:19:04,VALID,1001.26,VALID,0.5,INVALID,163.792,VALID,0,VALID,22.9233,VALID,125,VALID,0.616406,
2010-12-30, 02:20:04,VALID,1001.26,VALID,0,INVALID,163.784,VALID,0,VALID,22.9216,VALID,125,VALID,0.558594,
2010-12-30, 02:21:04,VALID,1001.31,VALID,0,INVALID,163.8,VALID,0,VALID,22.941,VALID,99,VALID,0.670703,
2010-12-30, 02:22:04,VALID,1001.33,VALID,0,INVALID,163.792,VALID,0,VALID,22.9428,VALID,97,VALID,0.594531,
2010-12-30, 02:23:04,VALID,1001.32,VALID,0,INVALID,163.815,VALID,0,VALID,22.964,VALID,97,VALID,0.573828,
2010-12-30, 02:24:04,VALID,1001.35,VALID,0,INVALID,163.784,VALID,0,VALID,22.9428,VALID,97,VALID,0.484375,
2010-12-30, 02:25:04,VALID,1001.34,VALID,0,INVALID,163.777,VALID,0,VALID,22.9817,VALID,98,VALID,0.198437,
2010-12-30, 02:26:04,VALID,1001.32,VALID,0,INVALID,163.823,VALID,0.100563,VALID,23.0012,VALID,67,VALID,0.660156,
2010-12-30, 02:27:04,VALID,1001.31,VALID,0,INVALID,163.777,VALID,0,VALID,23.0189,VALID,79,VALID,0.184375,
2010-12-30, 02:28:04,VALID,1001.3,VALID,0,INVALID,163.807,VALID,0,VALID,23.0401,VALID,79,VALID,0.226953,
2010-12-30, 02:29:04,VALID,1001.28,VALID,0,INVALID,163.815,VALID,0.100563,VALID,23.0595,VALID,79,VALID,0.187891,
2010-12-30, 02:30:04,VALID,1001.26,VALID,0,INVALID,163.769,VALID,0,VALID,23.079,VALID,79,VALID,0.446484,
2010-12-30, 02:31:04,VALID,1001.26,VALID,0,INVALID,163.777,VALID,0,VALID,23.1179,VALID,79,VALID,0.441016,
2010-12-30, 02:32:04,VALID,1001.28,VALID,0,INVALID,163.754,VALID,0.100563,VALID,23.1374,VALID,80,VALID,0.585938,
2010-12-30, 02:33:04,VALID,1001.26,VALID,0,INVALID,163.762,VALID,0,VALID,23.1374,VALID,80,VALID,0.326953,
2010-12-30, 02:34:04,VALID,1001.26,VALID,0,INVALID,163.762,VALID,0.100563,VALID,23.1551,VALID,80,VALID,0.516406,
2010-12-30, 02:35:04,VALID,1001.24,VALID,0.5,INVALID,163.777,VALID,0.100563,VALID,23.1763,VALID,80,VALID,0.273438,
2010-12-30, 02:36:04,VALID,1001.2,VALID,0,INVALID,163.792,VALID,0.100563,VALID,23.1957,VALID,80,VALID,0.289844,
2010-12-30, 02:37:04,VALID,1001.17,VALID,0,INVALID,163.792,VALID,0,VALID,23.1763,VALID,80,VALID,0.251172,
2010-12-30, 02:38:04,VALID,1001.18,VALID,0,INVALID,163.762,VALID,0,VALID,23.194,VALID,80,VALID,0.0914062,
2010-12-30, 02:39:04,VALID,1001.14,VALID,0,INVALID,163.784,VALID,0.100563,VALID,23.2347,VALID,80,VALID,0,
2010-12-30, 02:40:04,VALID,1001.16,VALID,0,INVALID,163.762,VALID,0,VALID,23.2736,VALID,80,VALID,0,
2010-12-30, 02:41:04,VALID,1001.15,VALID,0,INVALID,163.769,VALID,0,VALID,23.2948,VALID,80,VALID,0,
2010-12-30, 02:42:04,VALID,1001.15,VALID,0,INVALID,163.784,VALID,0,VALID,23.3125,VALID,80,VALID,0.1125,
2010-12-30, 02:43:04,VALID,1001.18,VALID,0,INVALID,163.769,VALID,0,VALID,23.2931,VALID,80,VALID,0.625391,
2010-12-30, 02:44:04,VALID,1001.23,VALID,0,INVALID,163.769,VALID,0.100563,VALID,23.2931,VALID,86,VALID,0.898828,
2010-12-30, 02:45:04,VALID,1001.28,VALID,0,INVALID,163.762,VALID,0,VALID,23.2931,VALID,88,VALID,0.710938,
2010-12-30, 02:46:04,VALID,1001.32,VALID,0,INVALID,163.762,VALID,0,VALID,23.332,VALID,86,VALID,0.913672,
2010-12-30, 02:47:04,VALID,1001.34,VALID,0,INVALID,163.762,VALID,0,VALID,23.3921,VALID,91,VALID,0.748047,
2010-12-30, 02:48:04,VALID,1001.42,VALID,0.5,INVALID,163.754,VALID,0,VALID,23.3904,VALID,89,VALID,0.585156,
2010-12-30, 02:49:04,VALID,1001.45,VALID,0,INVALID,163.777,VALID,0,VALID,23.4682,VALID,91,VALID,0.783203,
2010-12-30, 02:50:04,VALID,1001.49,VALID,0,INVALID,163.746,VALID,0,VALID,23.5248,VALID,105,VALID,0.916406,
2010-12-30, 02:51:04,VALID,1001.56,VALID,0,INVALID,163.739,VALID,0,VALID,23.546,VALID,83,VALID,0.740234,
2010-12-30, 02:52:04,VALID,1001.59,VALID,0,INVALID,163.731,VALID,0,VALID,23.6044,VALID,95,VALID,0.790234,
2010-12-30, 02:53:04,VALID,1001.61,VALID,0,INVALID,163.731,VALID,0,VALID,23.6044,VALID,91,VALID,0.785156,
2010-12-30, 02:54:04,VALID,1001.64,VALID,0,INVALID,163.731,VALID,0,VALID,23.6026,VALID,100,VALID,0.433984,
2010-12-30, 02:55:04,VALID,1001.65,VALID,0.5,INVALID,163.739,VALID,0,VALID,23.6434,VALID,93,VALID,0.280469,
2010-12-30, 02:56:04,VALID,1001.62,VALID,0,INVALID,163.746,VALID,0.100563,VALID,23.6628,VALID,94,VALID,0.595312,
2010-12-30, 02:57:04,VALID,1001.59,VALID,0,INVALID,163.746,VALID,0,VALID,23.6628,VALID,94,VALID,0.25,
2010-12-30, 02:58:04,VALID,1001.58,VALID,0,INVALID,163.723,VALID,0,VALID,23.6628,VALID,94,VALID,0,
2010-12-30, 02:59:04,VALID,1001.58,VALID,0,INVALID,163.739,VALID,0,VALID,23.6628,VALID,94,VALID,0,
2010-12-30, 03:00:04,VALID,1001.55,VALID,0,INVALID,163.754,VALID,0,VALID,23.6628,VALID,94,VALID,0,
2010-12-30, 03:01:04,VALID,1001.55,VALID,0,INVALID,163.716,VALID,0,VALID,23.661,VALID,94,VALID,0,
2010-12-30, 03:02:04,VALID,1001.54,VALID,0,INVALID,163.731,VALID,0,VALID,23.6823,VALID,94,VALID,0,
2010-12-30, 03:03:04,VALID,1001.56,VALID,0,INVALID,163.739,VALID,0,VALID,23.6805,VALID,94,VALID,0.268359,
2010-12-30, 03:04:04,VALID,1001.6,VALID,0.5,INVALID,163.723,VALID,0,VALID,23.7,VALID,94,VALID,0.438281,
2010-12-30, 03:05:04,VALID,1001.63,VALID,0,INVALID,163.731,VALID,0,VALID,23.7017,VALID,91,VALID,0.798437,
2010-12-30, 03:06:04,VALID,1001.62,VALID,0,INVALID,163.746,VALID,0,VALID,23.6416,VALID,88,VALID,0.84375,
2010-12-30, 03:07:04,VALID,1001.68,VALID,0,INVALID,163.739,VALID,0,VALID,23.6239,VALID,86,VALID,0.525,
2010-12-30, 03:08:04,VALID,1001.7,VALID,0,INVALID,163.723,VALID,0,VALID,23.6221,VALID,88,VALID,0.458203,
2010-12-30, 03:09:04,VALID,1001.71,VALID,0,INVALID,163.716,VALID,0,VALID,23.6026,VALID,87,VALID,0.699219,
2010-12-30, 03:10:04,VALID,1001.74,VALID,0.5,INVALID,163.746,VALID,0,VALID,23.6044,VALID,87,VALID,0.741797,
2010-12-30, 03:11:04,VALID,1001.75,VALID,0,INVALID,163.723,VALID,0,VALID,23.585,VALID,87,VALID,0.437891,
2010-12-30, 03:12:04,VALID,1001.79,VALID,0,INVALID,163.723,VALID,0,VALID,23.6044,VALID,89,VALID,0.578906,
2010-12-30, 03:13:04,VALID,1001.79,VALID,0,INVALID,163.723,VALID,0,VALID,23.5637,VALID,91,VALID,0.638281,
2010-12-30, 03:14:04,VALID,1001.75,VALID,0,INVALID,163.746,VALID,0,VALID,23.585,VALID,101,VALID,0.498437,
2010-12-30, 03:15:04,VALID,1001.75,VALID,0,INVALID,163.708,VALID,0,VALID,23.6044,VALID,104,VALID,0.510547,
2010-12-30, 03:16:04,VALID,1001.67,VALID,0,INVALID,163.731,VALID,0,VALID,23.6257,VALID,95,VALID,0.368359,
2010-12-30, 03:17:04,VALID,1001.65,VALID,0.5,INVALID,163.731,VALID,0,VALID,23.6239,VALID,92,VALID,0.346484,
2010-12-30, 03:18:04,VALID,1001.61,VALID,0,INVALID,163.739,VALID,0,VALID,23.6239,VALID,89,VALID,0.271094,
2010-12-30, 03:19:04,VALID,1001.57,VALID,0,INVALID,163.731,VALID,0,VALID,23.6239,VALID,89,VALID,0.304688,
2010-12-30, 03:20:04,VALID,1001.5,VALID,0,INVALID,163.739,VALID,0,VALID,23.6044,VALID,89,VALID,0.141016,
2010-12-30, 03:21:04,VALID,1001.48,VALID,0,INVALID,163.739,VALID,0,VALID,23.6044,VALID,89,VALID,0.141797,
2010-12-30, 03:22:04,VALID,1001.46,VALID,0,INVALID,163.739,VALID,0,VALID,23.585,VALID,89,VALID,0,
2010-12-30, 03:23:04,VALID,1001.43,VALID,0,INVALID,163.746,VALID,0,VALID,23.6044,VALID,89,VALID,0.0046875,
2010-12-30, 03:24:04,VALID,1001.38,VALID,0.5,INVALID,163.746,VALID,0,VALID,23.5637,VALID,89,VALID,0.0488281,
2010-12-30, 03:25:04,VALID,1001.36,VALID,0,INVALID,163.746,VALID,0,VALID,23.5637,VALID,89,VALID,0,
2010-12-30, 03:26:04,VALID,1001.34,VALID,0,INVALID,163.723,VALID,0,VALID,23.5637,VALID,89,VALID,0,
2010-12-30, 03:27:04,VALID,1001.37,VALID,0,INVALID,163.746,VALID,0.100563,VALID,23.585,VALID,89,VALID,0.0183594,
2010-12-30, 03:28:04,VALID,1001.34,VALID,0,INVALID,163.746,VALID,0,VALID,23.585,VALID,89,VALID,0.0625,
2010-12-30, 03:29:04,VALID,1001.35,VALID,0,INVALID,163.746,VALID,0,VALID,23.6044,VALID,89,VALID,0.0433594,
2010-12-30, 03:30:04,VALID,1001.33,VALID,0,INVALID,163.754,VALID,0,VALID,23.585,VALID,89,VALID,0,
2010-12-30, 03:31:04,VALID,1001.33,VALID,0,INVALID,163.739,VALID,0,VALID,23.5655,VALID,89,VALID,0.235156,
2010-12-30, 03:32:04,VALID,1001.33,VALID,0,INVALID,163.716,VALID,0,VALID,23.5655,VALID,89,VALID,0.169531,
2010-12-30, 03:33:04,VALID,1001.34,VALID,0,INVALID,163.731,VALID,0,VALID,23.585,VALID,89,VALID,0.127344,
2010-12-30, 03:34:04,VALID,1001.31,VALID,0,INVALID,163.739,VALID,0,VALID,23.5443,VALID,89,VALID,0.133203,
2010-12-30, 03:35:04,VALID,1001.31,VALID,0.5,INVALID,163.754,VALID,0,VALID,23.585,VALID,89,VALID,0.335156,
2010-12-30, 03:36:04,VALID,1001.3,VALID,0,INVALID,163.754,VALID,0,VALID,23.585,VALID,89,VALID,0.168359,
2010-12-30, 03:37:04,VALID,1001.28,VALID,0,INVALID,163.746,VALID,0,VALID,23.585,VALID,89,VALID,0.0101562,
2010-12-30, 03:38:04,VALID,1001.26,VALID,0,INVALID,163.746,VALID,0,VALID,23.6044,VALID,89,VALID,0.375781,
2010-12-30, 03:39:04,VALID,1001.21,VALID,0.5,INVALID,163.746,VALID,0,VALID,23.5655,VALID,144,VALID,0.672656,
2010-12-30, 03:40:04,VALID,1001.18,VALID,0,INVALID,163.739,VALID,0,VALID,23.585,VALID,153,VALID,0.388281,